Location: Bern/Schweiz
(46.9381°N, 7.4364°E)
Time: 02:54:12
(UTC+02:00)

ISS - Visible Passes

Search period start: 23 September 2020 00:00
Search period end: 03 October 2020 00:00
Orbit: 419 x 420 km, 51.6° (Epoch: 23 September)

Date Brightness Start Highest point End Pass type
(mag) Time Alt. Az. Time Alt. Az. Time Alt. Az.
23 Sep -2.8 20:55:33 10° W 20:58:47 43° NNW 21:00:25 24° NE visible
23 Sep -0.4 22:32:53 10° WNW 22:33:23 13° WNW 22:33:23 13° WNW visible
24 Sep -3.1 20:08:00 10° W 20:11:19 52° NNW 20:14:38 10° ENE visible
24 Sep -2.0 21:45:24 10° WNW 21:47:47 31° NNW 21:47:47 31° NNW visible
25 Sep -2.5 20:57:52 10° WNW 21:01:01 35° N 21:02:09 27° NE visible
25 Sep -0.2 22:34:55 10° WNW 22:35:07 11° WNW 22:35:07 11° WNW visible
26 Sep -2.6 20:10:18 10° WNW 20:13:28 37° N 20:16:30 11° ENE visible
26 Sep -1.8 21:47:30 10° WNW 21:49:27 28° NW 21:49:27 28° NW visible
27 Sep -2.8 21:00:01 10° WNW 21:03:12 38° N 21:03:46 35° NNE visible
28 Sep -2.6 20:12:29 10° WNW 20:15:39 35° N 20:18:06 15° ENE visible
28 Sep -1.5 21:49:25 10° WNW 21:51:03 26° WNW 21:51:03 26° WNW visible
29 Sep -3.4 21:01:59 10° WNW 21:05:18 53° NNE 21:05:23 53° NNE visible
30 Sep -3.0 20:14:30 10° WNW 20:17:45 43° NNE 20:19:43 20° ENE visible
30 Sep -1.2 21:51:20 10° WNW 21:52:41 22° WNW 21:52:41 22° WNW visible
01 Oct -3.7 21:03:50 10° WNW 21:07:03 78° W 21:07:03 78° W visible
02 Oct -3.7 20:16:20 10° WNW 20:19:43 71° NNE 20:21:28 26° ESE visible
02 Oct -0.8 21:53:32 10° W 21:54:26 15° W 21:54:26 15° W visible
